User: anonymous   Login
Location: Unspecified
(0.0000°N, 0.0000°E)
Time: 01:41:23
(UTC+00:00)
Language:

OFEQ 10 - Orbit

View from above orbital plane
View from above orbital plane
View from above satellite
View from above satellite

Ground track
Ground track

The orbit data is extracted from the following two-line orbital elements,

1 39650U 14019A   23026.74691292 0.00000000  00000-0  00000-0 0    04
2 39650 140.9252 176.2841 0006294 307.2618  52.7375 15.16853569    03
Epoch (UTC): 26 January 2023 17:55:33
Eccentricity: 0.0006294
inclination: 140.9252°
perigee height: 511 km
apogee height: 520 km
right ascension of ascending node: 176.2841°
argument of perigee: 307.2618°
revolutions per day: 15.16853569
mean anomaly at epoch: 52.7375°
orbit number at epoch: 0

The dashed part of the orbit path shows where the satellite is in the earth's shadow,  

DLR